Location: Asni�res
(49.1337°N, 2.3555°E)
Time: 22:07:23
(UTC+00:00)

Cosmos 1726 - Visible Passes

Search period start: 24 May 2022 00:00
Search period end: 03 June 2022 00:00
Orbit: 473 x 488 km, 82.5° (Epoch: 24 May)

Date Brightness Start Highest point End Pass type
(mag) Time Alt. Az. Time Alt. Az. Time Alt. Az.
24 May 2.7 22:32:19 10° N 22:35:52 44° ENE 22:36:41 37° ESE visible
25 May 4.3 00:08:21 10° NW 00:10:30 15° W 00:10:58 15° W visible
25 May 3.4 22:06:33 10° N 22:09:47 28° ENE 22:10:55 24° ESE visible
25 May 3.7 23:41:42 10° NW 23:44:39 23° W 23:45:12 22° WSW visible
26 May 4.0 21:40:56 10° NNE 21:43:37 19° ENE 21:45:10 15° E visible
26 May 3.1 23:15:21 10° NNW 23:18:45 36° W 23:19:27 32° WSW visible
27 May 4.4 21:15:42 10° NE 21:17:23 13° ENE 21:19:05 10° E visible
27 May 2.3 22:49:09 10° NNW 22:52:47 59° W 22:53:40 44° SSW visible
28 May 2.0 22:23:03 10° N 22:26:45 83° E 22:27:54 42° SSE visible
29 May 2.5 21:57:03 10° N 22:00:39 50° ENE 22:02:07 30° SE visible
29 May 4.5 23:33:20 10° NW 23:35:12 14° W 23:36:24 12° WSW visible
30 May 3.2 21:31:09 10° N 21:34:29 31° ENE 21:36:20 20° ESE visible
30 May 4.0 23:06:30 10° NW 23:09:17 21° W 23:10:37 17° WSW visible
31 May 3.8 21:05:24 10° NNE 21:08:15 21° ENE 21:10:33 13° ESE visible
31 May 3.4 22:40:00 10° NNW 22:43:19 32° W 22:44:50 23° SW visible
01 Jun 4.3 20:39:57 10° NNE 20:41:56 14° ENE 20:43:57 10° E visible
01 Jun 2.6 22:13:40 10° NNW 22:17:16 52° W 22:19:02 26° SSW visible
02 Jun 2.0 21:47:28 10° N 21:51:10 88° W 21:53:15 24° S visible
